Location: Big Prairie
(40.6673°N, 82.0952°W)
Time: 15:15:13
(UTC+00:00)

Cosmos 2026 Rocket - Pass Details

Date: 03 December 2021
Orbit: 938 x 1001 km, 82.9° (Epoch: 19 January)

Event Time Altitude Azimuth Distance (km) Brightness Sun altitude
Rises 22:31:00 0° 359° (N) 3,649 6.8 -5.9°
Reaches altitude 10° 22:33:42 10° 7° (N) 2,690 6.0 -6.3°
Maximum altitude 22:39:27 40° 76° (ENE) 1,355 4.3 -7.3°
Drops below altitude 10° 22:45:05 10° 145° (SE) 2,648 6.2 -8.3°
Sets 22:47:42 0° 153° (SSE) 3,586 6.9 -8.8°
